Stations météo

réclame
Mon MeteoGroup
Baltasound, Grande-Bretagne (3002): Température de l'air & dewpoint: 14.05.2019 17:00:00 - 20.05.2019 17:00:00 (BST)Baltasound, Grande-Bretagne (3002): Température de l'air -20cm: 14.05.2019 17:00:00 - 20.05.2019 17:00:00 (BST)Baltasound, Grande-Bretagne (3002): Vitesse du vent: 14.05.2019 17:00:00 - 20.05.2019 17:00:00 (BST)Baltasound, Grande-Bretagne (3002): Direction du vent: 14.05.2019 17:00:00 - 20.05.2019 17:00:00 (BST)Baltasound, Grande-Bretagne (3002): reduced air pressure: 14.05.2019 17:00:00 - 20.05.2019 17:00:00 (BST)Baltasound, Grande-Bretagne (3002): visibility: 14.05.2019 17:00:00 - 20.05.2019 17:00:00 (BST)Baltasound, Grande-Bretagne (3002): Quantités de précipitations: 14.05.2019 17:00:00 - 20.05.2019 17:00:00 (BST)
Date & Time tt [°C] td [°C] tt -20cm [°C] ff [km/h] ff [knt] dd ppp [hPa] vv [km] rr [mm]
20.05.2019 17:00:00 12,5 6,6 - 8 4 ENE 1014,7 50 0,0
20.05.2019 16:00:00 12,5 7,8 - 9 5 ESE 1014,6 40 0,0
20.05.2019 15:00:00 12,3 8,2 - 11 6 E 1014,3 30 0,0
20.05.2019 14:00:00 13,7 6,6 - 8 4 NW 1014,1 30 0,0
20.05.2019 13:00:00 13,6 6,9 - 5 3 WSW 1014,0 40 0,0
20.05.2019 12:00:00 12,7 6,8 - 11 6 SSE 1014,0 40 0,0
20.05.2019 11:00:00 13,1 7,1 - 9 5 SE 1013,9 19 0,0
20.05.2019 10:00:00 11,9 8,5 10,2 11 6 SSE 1013,7 30 0,0
20.05.2019 09:00:00 10,9 9,3 - 9 5 SSE 1013,5 21 0,0
20.05.2019 08:00:00 10,5 9,9 - 8 4 SSE 1013,2 15 0,0
20.05.2019 07:00:00 10,0 9,9 - 8 4 SSE 1012,8 9 0,0
20.05.2019 06:00:00 9,7 9,7 - 4 2 W 1012,5 7 0,0
20.05.2019 05:00:00 9,5 9,5 - 4 2 WSW 1012,3 4,7 0,0
20.05.2019 04:00:00 9,4 9,4 - 5 3 ESE 1012,3 0,4 0,0
20.05.2019 03:00:00 9,4 9,4 - 13 7 S 1012,2 0,2 0,0
20.05.2019 02:00:00 9,6 9,6 - 11 6 SSE 1012,3 0,4 0,0
20.05.2019 01:00:00 9,8 9,7 - 8 4 SE 1012,4 0,2 0,0
20.05.2019 00:00:00 9,9 9,7 - 9 5 ESE 1012,3 0,3 0,0
19.05.2019 23:00:00 9,9 9,8 - 8 4 ESE 1012,2 0,3 0,0
19.05.2019 22:00:00 10,1 9,8 - 5 3 SE 1012,0 3,1 0,0
19.05.2019 21:00:00 10,3 9,7 - 11 6 ESE 1011,7 10 0,0
19.05.2019 20:00:00 10,4 9,7 - 13 7 ESE 1011,6 15 0,0
19.05.2019 19:00:00 10,6 9,7 - 11 6 ESE 1011,3 25 0,0
19.05.2019 18:00:00 10,6 9,4 - 16 9 ESE 1011,5 35 0,0
19.05.2019 17:00:00 11,0 9,5 - 21 11 E 1011,5 30 0,0
19.05.2019 16:00:00 11,9 10,2 - 22 12 ESE 1011,6 20 0,0
19.05.2019 15:00:00 11,2 10,0 - 24 13 E 1011,8 18 0,0
19.05.2019 14:00:00 10,7 9,6 - 21 11 E 1011,9 22 0,0
19.05.2019 13:00:00 10,5 9,7 - 18 10 E 1011,9 35 0,0
19.05.2019 12:00:00 10,1 9,6 - 11 6 E 1011,9 13 0,4
19.05.2019 11:00:00 9,9 9,6 - 9 5 ENE 1011,8 25 1,6
19.05.2019 10:00:00 9,7 9,5 10,0 11 6 E 1011,9 14 1,4
19.05.2019 09:00:00 9,6 9,5 - 11 6 ESE 1011,8 6 2,6
19.05.2019 08:00:00 9,7 9,6 - 13 7 ESE 1011,6 11 0,4
19.05.2019 07:00:00 9,8 9,7 - 11 6 ESE 1011,6 1,1 0,0
19.05.2019 06:00:00 9,4 9,2 - 8 4 ESE 1011,7 2,4 0,0
19.05.2019 05:00:00 9,3 8,9 - 15 8 SE 1011,8 6 0,0
19.05.2019 04:00:00 9,2 8,6 - 16 9 SE 1011,7 12 0,0
19.05.2019 03:00:00 9,3 9,1 - 15 8 SE 1011,9 14 0,0
19.05.2019 02:00:00 9,5 9,3 - 13 7 SE 1011,9 5 0,2
19.05.2019 01:00:00 9,4 9,1 - 11 6 ESE 1012,1 1,1 0,0
19.05.2019 00:00:00 9,3 8,4 - 11 6 SSE 1012,1 30 0,0
18.05.2019 23:00:00 9,5 8,2 - 18 10 SSE 1012,1 45 0,0
18.05.2019 22:00:00 9,8 8,5 - 15 8 SSE 1011,9 26 0,0
18.05.2019 21:00:00 9,9 8,8 - 18 10 SSE 1011,7 15 0,0
18.05.2019 20:00:00 9,7 8,7 - 16 9 SSE 1011,5 9 0,0
18.05.2019 19:00:00 10,1 8,3 - 16 9 SE 1011,3 14 0,0
18.05.2019 18:00:00 11,5 8,9 - 11 6 SSW 1011,0 27 0,0
18.05.2019 17:00:00 10,0 8,6 - 13 7 SSE 1011,3 14 0,0
18.05.2019 16:00:00 10,0 8,5 - 11 6 ESE 1011,6 15 0,0
18.05.2019 15:00:00 9,6 8,4 - 13 7 E 1011,8 21 0,0
18.05.2019 14:00:00 9,5 8,5 - 15 8 E 1012,0 14 0,0
18.05.2019 13:00:00 9,3 8,4 - 21 11 ENE 1012,4 10 0,0
18.05.2019 12:00:00 9,2 8,5 - 22 12 ENE 1012,6 13 0,0
18.05.2019 11:00:00 8,9 8,3 - 24 13 ENE 1012,6 11 0,0
18.05.2019 10:00:00 8,8 8,3 10,0 29 16 ENE 1013,4 12 0,0
18.05.2019 09:00:00 8,6 8,1 - 29 16 NE 1013,6 11 0,0
18.05.2019 08:00:00 8,6 7,9 - 26 14 NE 1014,1 16 0,0
18.05.2019 07:00:00 8,6 7,9 - 24 13 NE 1014,3 17 0,0
18.05.2019 06:00:00 8,7 7,9 - 22 12 NE 1014,9 13 0,0
18.05.2019 05:00:00 8,4 7,5 - 22 12 NE 1015,5 14 0,0
18.05.2019 04:00:00 8,1 7,3 - 9 5 NNE 1016,2 13 0,0
18.05.2019 03:00:00 7,9 7,1 - 5 3 NNW 1017,0 16 0,0
18.05.2019 02:00:00 7,9 7,2 - 9 5 NNE 1017,6 14 0,0
18.05.2019 01:00:00 8,0 7,4 - 11 6 NE 1018,2 15 0,0
18.05.2019 00:00:00 7,6 7,2 - 9 5 NNE 1019,0 15 0,0
17.05.2019 23:00:00 8,0 7,5 - 15 8 NE 1019,5 12 0,0
17.05.2019 22:00:00 7,9 7,5 - 18 10 NE 1019,9 14 0,0
17.05.2019 21:00:00 8,4 8,0 - 11 6 NE 1020,3 13 0,0
17.05.2019 20:00:00 8,2 7,8 - 15 8 ENE 1020,7 4,1 0,0
17.05.2019 19:00:00 8,5 7,8 - 15 8 ENE 1020,8 9 0,0
17.05.2019 18:00:00 8,8 8,1 - 15 8 ENE 1021,2 3,8 0,0
17.05.2019 17:00:00 8,8 8,0 - 16 9 ENE 1021,6 1,5 0,0
17.05.2019 16:00:00 9,7 8,5 - 21 11 E 1021,9 5 0,0
17.05.2019 15:00:00 10,1 8,7 - 16 9 E 1022,3 18 0,0
17.05.2019 14:00:00 9,4 8,5 - 18 10 ENE 1022,7 4,4 0,0
17.05.2019 13:00:00 9,1 8,1 - 18 10 ENE 1023,2 4,2 0,0
17.05.2019 12:00:00 9,2 8,1 - 18 10 ENE 1023,3 6 0,0
17.05.2019 11:00:00 9,8 8,2 - 21 11 ENE 1023,5 11 0,0
17.05.2019 10:00:00 11,0 8,6 10,0 16 9 ENE 1023,8 35 0,0
17.05.2019 09:00:00 12,1 5,2 - 16 9 ENE 1024,1 45 0,0
17.05.2019 08:00:00 11,3 6,7 - 11 6 ENE 1023,9 45 0,0
17.05.2019 07:00:00 10,6 8,9 - 5 3 ENE 1024,4 35 0,0
17.05.2019 06:00:00 6,7 6,4 - 4 2 WSW 1024,7 35 0,0
17.05.2019 05:00:00 4,7 3,9 - 2 1 ESE 1025,1 50 0,0
17.05.2019 04:00:00 6,0 5,3 - 8 4 ESE 1025,3 35 0,0
17.05.2019 03:00:00 6,0 5,7 - 11 6 SE 1025,6 27 0,0
17.05.2019 02:00:00 5,9 5,5 - 11 6 SE 1025,9 16 0,0
17.05.2019 01:00:00 6,6 6,1 - 15 8 SE 1026,1 11 0,0
17.05.2019 00:00:00 7,3 6,8 - 16 9 SE 1026,2 13 0,0
16.05.2019 23:00:00 7,4 6,8 - 15 8 SE 1026,1 11 0,0
16.05.2019 22:00:00 8,1 7,0 - 18 10 SE 1026,1 13 0,0
16.05.2019 21:00:00 9,1 7,1 - 22 12 SE 1026,2 20 0,0
16.05.2019 20:00:00 10,0 7,3 - 24 13 SE 1026,2 40 0,0
16.05.2019 19:00:00 10,7 8,0 - 24 13 SE 1026,2 21 0,0
16.05.2019 18:00:00 11,0 8,0 - 24 13 ESE 1026,4 22 0,0
16.05.2019 17:00:00 11,7 8,2 - 24 13 SE 1026,8 18 0,0
16.05.2019 16:00:00 11,0 7,6 - 24 13 SE 1027,3 21 0,0
16.05.2019 15:00:00 10,8 7,0 - 24 13 SE 1027,8 26 0,0
16.05.2019 14:00:00 10,8 7,0 - 24 13 SE 1028,0 50 0,0
16.05.2019 13:00:00 10,5 7,5 - 22 12 ESE 1028,1 30 0,0
16.05.2019 12:00:00 10,8 7,7 - 22 12 ESE 1028,2 35 0,0
16.05.2019 11:00:00 9,9 7,3 - 22 12 SE 1028,5 30 0,0
16.05.2019 10:00:00 9,2 7,4 9,9 24 13 SE 1028,5 26 0,0
16.05.2019 09:00:00 8,4 7,4 - 21 11 ESE 1028,7 15 0,0
16.05.2019 08:00:00 8,0 7,5 - 21 11 SE 1028,7 10 0,0
16.05.2019 07:00:00 8,0 7,6 - 21 11 SE 1028,7 10 0,0
16.05.2019 06:00:00 8,2 7,9 - 18 10 SE 1028,8 10 0,0
16.05.2019 05:00:00 8,0 7,8 - 18 10 SE 1028,7 6 0,0
16.05.2019 04:00:00 9,1 8,6 - 16 9 SE 1028,9 12 0,0
16.05.2019 03:00:00 9,0 8,8 - 18 10 SE 1029,2 8 0,0
16.05.2019 02:00:00 8,3 8,0 - 8 4 SE 1029,2 7 0,0
16.05.2019 01:00:00 7,2 6,9 - 11 6 SE 1029,5 9 0,0
16.05.2019 00:00:00 8,1 7,7 - 15 8 SE 1029,4 8 0,0
15.05.2019 23:00:00 8,1 7,6 - 13 7 SE 1029,5 8 0,0
15.05.2019 22:00:00 8,2 7,3 - 11 6 SE 1029,6 10 0,0
15.05.2019 21:00:00 9,9 7,7 - 5 3 ESE 1029,6 20 0,0
15.05.2019 20:00:00 11,2 7,9 - 13 7 SSE 1029,5 35 0,0
15.05.2019 19:00:00 11,8 8,0 - 21 11 SSE 1029,4 40 0,0
15.05.2019 18:00:00 12,8 7,5 - 22 12 SE 1029,5 30 0,0
15.05.2019 17:00:00 13,4 6,2 - 22 12 SSE 1029,7 40 0,0
15.05.2019 16:00:00 14,6 4,2 - 24 13 SSE 1029,8 45 0,0
15.05.2019 15:00:00 13,8 6,4 - 22 12 SSE 1030,1 30 0,0
15.05.2019 14:00:00 14,2 7,0 - 16 9 SE 1030,1 21 0,0
15.05.2019 13:00:00 13,8 7,4 - 16 9 SSE 1030,1 30 0,0
15.05.2019 12:00:00 13,3 7,1 - 24 13 SSE 1030,0 30 0,0
15.05.2019 11:00:00 13,3 8,3 - 15 8 SE 1030,1 27 0,0
15.05.2019 10:00:00 13,9 7,8 9,2 9 5 SSE 1030,1 18 0,0
15.05.2019 09:00:00 14,1 7,1 - 8 4 S 1030,1 22 0,0
15.05.2019 08:00:00 11,9 10,3 - 5 3 NE 1030,1 20 0,0
15.05.2019 07:00:00 9,4 8,8 - 5 3 E 1030,3 28 0,0
15.05.2019 06:00:00 6,3 5,9 - 0 0 N 1030,1 11 0,0
15.05.2019 05:00:00 5,0 4,6 - 4 2 W 1030,1 11 0,0
15.05.2019 04:00:00 5,7 5,2 - 2 1 NNE 1030,4 10 0,0
15.05.2019 03:00:00 5,0 4,6 - 5 3 WNW 1030,7 13 0,0
15.05.2019 02:00:00 4,5 4,1 - 2 1 S 1031,0 5 0,0
15.05.2019 01:00:00 4,7 4,1 - 2 1 E 1031,1 1,7 0,0
15.05.2019 00:00:00 5,3 4,6 - 2 1 SE 1031,4 7 0,0
14.05.2019 23:00:00 6,3 5,3 - 2 1 NW 1031,3 9 0,0
14.05.2019 22:00:00 7,2 5,6 - 4 2 ENE 1031,3 14 0,0
14.05.2019 21:00:00 10,7 8,0 - 4 2 NW 1031,3 18 0,0
14.05.2019 20:00:00 11,3 8,5 - 9 5 WNW 1031,4 21 0,0
14.05.2019 19:00:00 12,2 8,6 - 11 6 WNW 1031,6 22 0,0
14.05.2019 18:00:00 13,2 8,8 - 13 7 WNW 1031,6 16 0,0
14.05.2019 17:00:00 13,3 8,9 - 16 9 W 1031,6 13 0,0

tt = Température de l'air
td = dewpoint
tt -20cm = Température de l'air -20cm
ff = Vitesse du vent
dd = Direction du vent
ppp = reduced air pressure
vv = visibility
rr = Quantités de précipitations

stations d'obs. à proximité